Regional Weather Roundup
Issued by NWS

Home | Current Version | Previous Version | Graphics & Text | Print | Product List | Glossary On
Versions: 1 2 3 4 5 6 7 8 9 10 11 12 13 14 15 16 17 18 19 20 21 22 23 24 25 26 27 28 29 30 31 32 33 34 35 36 37 38 39 40 41 42 43 44 45 46 47 48 49 50
000
ASUS43 KFSD 052302
RWRSD

WEATHER ROUNDUP FOR SOUTH DAKOTA
NATIONAL WEATHER SERVICE SIOUX FALLS SD
600 PM CDT SUN JUL 05 2015

NOTE: "FAIR" INDICATES FEW OR NO CLOUDS BELOW 12,000 FEET WITH NO
SIGNIFICANT WEATHER AND/OR OBSTRUCTIONS TO VISIBILITY.


SDZ001>005-009-010-012>017-060000-
NORTHWEST AND NORTH CENTRAL SOUTH DAKOTA

CITY           SKY/WX    TMP DP  RH WIND       PRES   REMARKS
BUFFALO          N/A     66  57  72 N20       29.97R
FAITH            N/A     66  62  87 N15       29.95R
MOBRIDGE       LGT RAIN  76  68  76 N14       29.86R
$$

SDZ012>016-024>037-041>051-057-063-072>074-060000-
SOUTHWEST AND SOUTH CENTRAL SOUTH DAKOTA

CITY           SKY/WX    TMP DP  RH WIND       PRES   REMARKS
RAPID CTY ARPT CLOUDY    73  62  68 N24G36    29.94R
PIERRE         CLOUDY    83  72  69 N12       29.77R
CUSTER         LGT RAIN  66  58  75 N14G25    30.04R
ELLSWORTH AFB  CLOUDY    71  63  76 N23G31    29.96R
PHILIP         CLOUDY    78  69  73 N18G25    29.83R
PINE RIDGE     TSTM      75  70  84 NE14      29.88R
WINNER         FAIR      95  69  42 E12       29.73S HX 100
$$

SDZ004>011-016>023-039-040-060000-
NORTHEAST SOUTH DAKOTA

CITY           SKY/WX    TMP DP  RH WIND       PRES   REMARKS
ABERDEEN       PTSUNNY   84  74  71 N16       29.77R
WATERTOWN      PTSUNNY   88  69  53 S10       29.77F
BROOKINGS      PTSUNNY  N/A N/A N/A S16G22    29.80S
SISSETON         N/A     86  70  58 N7        29.74R
$$

SDZ017-020-022-023-036>040-048>070-060000-
SOUTHEAST SOUTH DAKOTA

CITY           SKY/WX    TMP DP  RH WIND       PRES   REMARKS
SIOUX FALLS    PTSUNNY   86  73  65 SE16      29.78F
HURON          PTSUNNY   88  73  61 SW5       29.72F HX  95
MITCHELL       MOSUNNY   87  73  62 SE16      29.73F
YANKTON        PTSUNNY   86  73  66 SE12      29.76S
$$

ABBREVIATIONS USED IN REMARKS
   TC - TEMPERATURE IN CELSIUS
  WCI - WIND CHILL INDEX
   HX - HEAT INDEX
  VSB - VISIBILITY



USA.gov is the U.S. government's official web portal to all federal, state and local government web resources and services.